Time,TemperatureF,DewpointF,PressureIn,WindDirection,WindDirectionDegrees,WindSpeedMPH,WindSpeedGustMPH,Humidity,HourlyPrecipIn,Conditions,Clouds,dailyrainin,SoftwareType,DateUTC
2013-07-11 00:01:00,68.0,61.0,29.98,East,89,0.0,3.0,79,0.00,,,0.20,,2013-07-11 04:01:00,
2013-07-11 00:12:00,68.0,61.0,29.97,ENE,69,0.0,4.0,78,0.00,,,0.20,,2013-07-11 04:12:00,
2013-07-11 00:22:00,68.0,61.0,29.97,ENE,69,0.0,4.0,78,0.00,,,0.20,,2013-07-11 04:22:00,
2013-07-11 00:32:00,68.0,61.0,29.98,ENE,70,1.0,4.0,77,0.00,,,0.20,,2013-07-11 04:32:00,
2013-07-11 00:42:00,67.0,60.0,29.98,ENE,62,0.0,2.0,78,0.00,,,0.20,,2013-07-11 04:42:00,
2013-07-11 00:53:00,67.0,60.0,29.98,ENE,62,0.0,2.0,78,0.00,,,0.20,,2013-07-11 04:53:00,
2013-07-11 01:02:00,67.0,60.0,29.98,ENE,74,0.0,2.0,77,0.00,,,0.20,,2013-07-11 05:02:00,
2013-07-11 01:12:00,67.0,60.0,29.98,ENE,75,0.0,2.0,77,0.00,,,0.20,,2013-07-11 05:12:00,
2013-07-11 01:22:00,67.0,60.0,29.98,ENE,75,0.0,2.0,77,0.00,,,0.20,,2013-07-11 05:22:00,
2013-07-11 01:32:00,67.0,60.0,29.98,ENE,75,0.0,2.0,78,0.00,,,0.20,,2013-07-11 05:32:00,
2013-07-11 01:43:00,66.0,59.0,29.98,ENE,74,0.0,2.0,78,0.00,,,0.20,,2013-07-11 05:43:00,
2013-07-11 01:52:00,66.0,59.0,29.98,ENE,74,0.0,2.0,78,0.00,,,0.20,,2013-07-11 05:52:00,
2013-07-11 02:01:00,66.0,59.0,29.98,ENE,74,0.0,1.0,78,0.00,,,0.20,,2013-07-11 06:01:00,
2013-07-11 02:12:00,66.0,59.0,29.98,ENE,74,0.0,0.0,79,0.00,,,0.20,,2013-07-11 06:12:00,
2013-07-11 02:22:00,66.0,59.0,29.98,ENE,74,0.0,0.0,79,0.00,,,0.20,,2013-07-11 06:22:00,
2013-07-11 02:32:00,65.0,59.0,29.99,ENE,74,0.0,0.0,80,0.00,,,0.20,,2013-07-11 06:32:00,
2013-07-11 02:43:00,64.0,58.0,29.98,ENE,74,0.0,0.0,82,0.00,,,0.20,,2013-07-11 06:43:00,
2013-07-11 02:52:00,64.0,58.0,29.98,ENE,74,0.0,0.0,82,0.00,,,0.20,,2013-07-11 06:52:00,
2013-07-11 03:02:00,63.0,58.0,29.99,ENE,74,0.0,0.0,84,0.00,,,0.20,,2013-07-11 07:02:00,
2013-07-11 03:12:00,62.0,58.0,29.99,ENE,74,0.0,0.0,86,0.00,,,0.20,,2013-07-11 07:12:00,
2013-07-11 03:22:00,62.0,58.0,29.99,ENE,74,0.0,0.0,86,0.00,,,0.20,,2013-07-11 07:22:00,
2013-07-11 03:32:00,62.0,58.0,29.99,ENE,74,0.0,0.0,87,0.00,,,0.20,,2013-07-11 07:32:00,
2013-07-11 03:45:00,61.0,57.0,29.99,ENE,74,0.0,0.0,88,0.00,,,0.20,,2013-07-11 07:45:00,
2013-07-11 03:53:00,61.0,57.0,29.99,ENE,74,0.0,0.0,88,0.00,,,0.20,,2013-07-11 07:53:00,
2013-07-11 04:02:00,61.0,58.0,30.00,ENE,74,0.0,0.0,89,0.00,,,0.20,,2013-07-11 08:02:00,
2013-07-11 04:11:00,61.0,58.0,30.00,ENE,74,0.0,0.0,89,0.00,,,0.20,,2013-07-11 08:11:00,
2013-07-11 04:22:00,61.0,58.0,30.00,ENE,74,0.0,0.0,89,0.00,,,0.20,,2013-07-11 08:22:00,
2013-07-11 04:34:00,60.0,57.0,30.00,ENE,74,0.0,0.0,90,0.00,,,0.20,,2013-07-11 08:34:00,
2013-07-11 04:43:00,60.0,57.0,30.01,ENE,74,0.0,0.0,90,0.00,,,0.20,,2013-07-11 08:43:00,
2013-07-11 04:53:00,60.0,57.0,30.01,ENE,74,0.0,0.0,90,0.00,,,0.20,,2013-07-11 08:53:00,
2013-07-11 05:03:00,60.0,57.0,30.00,ENE,74,0.0,1.0,90,0.00,,,0.20,,2013-07-11 09:03:00,
2013-07-11 05:12:00,59.0,56.0,30.00,ENE,74,0.0,0.0,90,0.00,,,0.20,,2013-07-11 09:12:00,
2013-07-11 05:21:00,59.0,56.0,30.00,ENE,74,0.0,0.0,90,0.00,,,0.20,,2013-07-11 09:21:00,
2013-07-11 05:33:00,59.0,57.0,30.00,ENE,74,0.0,0.0,93,0.00,,,0.20,,2013-07-11 09:33:00,
2013-07-11 05:43:00,59.0,57.0,30.00,ENE,74,0.0,1.0,93,0.00,,,0.20,,2013-07-11 09:43:00,
2013-07-11 05:53:00,59.0,57.0,30.00,ENE,74,0.0,1.0,93,0.00,,,0.20,,2013-07-11 09:53:00,
2013-07-11 06:01:00,59.0,57.0,30.00,ENE,74,0.0,1.0,93,0.00,,,0.20,,2013-07-11 10:01:00,
2013-07-11 06:12:00,59.0,57.0,30.01,ENE,74,0.0,1.0,93,0.00,,,0.20,,2013-07-11 10:12:00,
2013-07-11 06:22:00,59.0,57.0,30.01,ENE,74,0.0,1.0,93,0.00,,,0.20,,2013-07-11 10:22:00,
2013-07-11 06:33:00,58.0,55.0,30.02,ENE,74,0.0,1.0,91,0.00,,,0.20,,2013-07-11 10:33:00,
2013-07-11 06:43:00,57.0,55.0,30.02,ENE,74,0.0,0.0,92,0.00,,,0.20,,2013-07-11 10:43:00,
2013-07-11 06:52:00,57.0,55.0,30.02,ENE,74,0.0,0.0,92,0.00,,,0.20,,2013-07-11 10:52:00,
2013-07-11 07:02:00,56.0,54.0,30.02,ENE,74,0.0,0.0,93,0.00,,,0.20,,2013-07-11 11:02:00,
2013-07-11 07:12:00,56.0,54.0,30.03,ENE,74,0.0,0.0,93,0.00,,,0.20,,2013-07-11 11:12:00,
2013-07-11 07:22:00,56.0,54.0,30.03,ENE,74,0.0,0.0,93,0.00,,,0.20,,2013-07-11 11:22:00,
2013-07-11 07:32:00,56.0,54.0,30.03,ENE,74,0.0,0.0,94,0.00,,,0.20,,2013-07-11 11:32:00,
2013-07-11 07:43:00,57.0,56.0,30.04,ENE,74,0.0,0.0,95,0.00,,,0.20,,2013-07-11 11:43:00,
2013-07-11 07:53:00,57.0,56.0,30.04,ENE,74,0.0,0.0,95,0.00,,,0.20,,2013-07-11 11:53:00,
2013-07-11 08:01:00,58.0,57.0,30.04,ENE,74,0.0,1.0,96,0.00,,,0.20,,2013-07-11 12:01:00,
2013-07-11 08:12:00,61.0,59.0,30.04,ENE,74,0.0,1.0,94,0.00,,,0.20,,2013-07-11 12:12:00,
2013-07-11 08:22:00,61.0,59.0,30.04,ENE,74,0.0,1.0,94,0.00,,,0.20,,2013-07-11 12:22:00,
2013-07-11 08:33:00,64.0,60.0,30.05,ENE,73,0.0,2.0,88,0.00,,,0.20,,2013-07-11 12:33:00,
2013-07-11 08:43:00,65.0,60.0,30.05,ENE,67,0.0,2.0,85,0.00,,,0.20,,2013-07-11 12:43:00,
2013-07-11 08:54:00,65.0,60.0,30.05,ENE,67,0.0,2.0,85,0.00,,,0.20,,2013-07-11 12:54:00,
2013-07-11 09:02:00,66.0,61.0,30.05,NNE,24,1.0,4.0,83,0.00,,,0.20,,2013-07-11 13:02:00,
2013-07-11 09:13:00,68.0,62.0,30.05,NNE,24,2.0,4.0,80,0.00,,,0.20,,2013-07-11 13:13:00,
2013-07-11 09:23:00,68.0,62.0,30.05,NNE,24,2.0,4.0,80,0.00,,,0.20,,2013-07-11 13:23:00,
2013-07-11 09:34:00,69.0,63.0,30.06,NNE,23,0.0,3.0,80,0.00,,,0.20,,2013-07-11 13:34:00,
2013-07-11 09:45:00,70.0,62.0,30.06,NNE,30,0.0,3.0,75,0.00,,,0.20,,2013-07-11 13:45:00,
2013-07-11 09:54:00,70.0,62.0,30.06,NNE,30,0.0,3.0,75,0.00,,,0.20,,2013-07-11 13:54:00,
2013-07-11 10:05:00,71.0,62.0,30.06,NE,42,2.0,5.0,73,0.00,,,0.20,,2013-07-11 14:05:00,
2013-07-11 10:35:00,72.0,61.0,30.06,NNE,25,2.0,4.0,68,0.00,,,0.20,,2013-07-11 14:35:00,
2013-07-11 10:45:00,73.0,62.0,30.06,NNE,28,1.0,3.0,68,0.00,,,0.20,,2013-07-11 14:45:00,
2013-07-11 10:54:00,73.0,62.0,30.06,NNE,28,1.0,3.0,68,0.00,,,0.20,,2013-07-11 14:54:00,
2013-07-11 11:04:00,74.0,60.0,30.06,NNE,33,3.0,6.0,62,0.00,,,0.20,,2013-07-11 15:04:00,
2013-07-11 11:13:00,74.0,59.0,30.06,NE,38,2.0,6.0,60,0.00,,,0.20,,2013-07-11 15:13:00,
2013-07-11 11:24:00,74.0,59.0,30.06,NE,38,2.0,6.0,60,0.00,,,0.20,,2013-07-11 15:24:00,
2013-07-11 11:45:00,75.0,61.0,30.06,NE,41,1.0,5.0,61,0.00,,,0.20,,2013-07-11 15:45:00,
2013-07-11 11:55:00,75.0,61.0,30.06,NE,41,1.0,5.0,61,0.00,,,0.20,,2013-07-11 15:55:00,
2013-07-11 12:14:00,76.0,60.0,30.07,NNE,32,2.0,7.0,57,0.00,,,0.20,,2013-07-11 16:14:00,
2013-07-11 12:24:00,76.0,60.0,30.07,NNE,32,2.0,7.0,57,0.00,,,0.20,,2013-07-11 16:24:00,
2013-07-11 12:35:00,76.0,59.0,30.07,NE,39,2.0,7.0,56,0.00,,,0.20,,2013-07-11 16:35:00,
2013-07-11 12:46:00,75.0,62.0,30.07,North,9,2.0,6.0,63,0.00,,,0.20,,2013-07-11 16:46:00,
2013-07-11 12:54:00,75.0,62.0,30.07,North,9,2.0,6.0,63,0.00,,,0.20,,2013-07-11 16:54:00,
2013-07-11 13:03:00,76.0,61.0,30.07,NNE,33,2.0,6.0,59,0.00,,,0.20,,2013-07-11 17:03:00,
2013-07-11 13:14:00,76.0,59.0,30.07,NNE,29,2.0,5.0,56,0.00,,,0.20,,2013-07-11 17:14:00,
2013-07-11 13:26:00,76.0,59.0,30.07,NNE,29,2.0,5.0,56,0.00,,,0.20,,2013-07-11 17:26:00,
2013-07-11 13:38:00,77.0,61.0,30.07,ENE,57,3.0,8.0,57,0.00,,,0.00,,2013-07-11 17:38:00,
2013-07-11 13:45:00,76.0,58.0,30.07,ENE,63,3.0,8.0,54,0.00,,,0.00,,2013-07-11 17:45:00,
2013-07-11 13:52:00,76.0,58.0,30.07,ENE,63,3.0,8.0,54,0.00,,,0.00,,2013-07-11 17:52:00,
2013-07-11 14:05:00,76.0,59.0,30.07,ENE,59,3.0,9.0,56,0.00,,,0.00,,2013-07-11 18:05:00,
2013-07-11 14:24:00,77.0,60.0,30.06,ENE,72,2.0,8.0,55,0.00,,,0.00,,2013-07-11 18:24:00,
2013-07-11 14:35:00,77.0,59.0,30.07,NE,52,3.0,8.0,53,0.00,,,0.00,,2013-07-11 18:35:00,
2013-07-11 14:45:00,78.0,61.0,30.06,NE,51,2.0,10.0,56,0.00,,,0.00,,2013-07-11 18:45:00,
2013-07-11 14:54:00,78.0,61.0,30.06,NE,51,2.0,10.0,56,0.00,,,0.00,,2013-07-11 18:54:00,
2013-07-11 15:04:00,78.0,58.0,30.06,ENE,59,2.0,6.0,50,0.00,,,0.00,,2013-07-11 19:04:00,
2013-07-11 15:13:00,77.0,59.0,30.06,NE,34,3.0,13.0,54,0.00,,,0.00,,2013-07-11 19:13:00,
2013-07-11 15:38:00,78.0,62.0,30.06,NNE,30,1.0,7.0,57,0.00,,,0.00,,2013-07-11 19:38:00,
2013-07-11 15:44:00,77.0,59.0,30.06,ENE,60,1.0,7.0,53,0.00,,,0.00,,2013-07-11 19:44:00,
2013-07-11 15:55:00,77.0,59.0,30.06,ENE,60,1.0,7.0,53,0.00,,,0.00,,2013-07-11 19:55:00,
2013-07-11 16:26:00,78.0,57.0,30.06,ENE,59,4.0,9.0,48,0.00,,,0.00,,2013-07-11 20:26:00,
2013-07-11 16:37:00,78.0,58.0,30.06,NE,36,2.0,8.0,50,0.00,,,0.00,,2013-07-11 20:37:00,
2013-07-11 16:46:00,79.0,59.0,30.06,ENE,69,3.0,7.0,50,0.00,,,0.00,,2013-07-11 20:46:00,
2013-07-11 16:53:00,79.0,59.0,30.06,ENE,69,3.0,7.0,50,0.00,,,0.00,,2013-07-11 20:53:00,
2013-07-11 17:05:00,78.0,56.0,30.06,NE,40,3.0,9.0,47,0.00,,,0.00,,2013-07-11 21:05:00,
2013-07-11 17:24:00,78.0,57.0,30.06,NE,54,2.0,9.0,48,0.00,,,0.00,,2013-07-11 21:24:00,
2013-07-11 17:35:00,79.0,58.0,30.06,NE,53,2.0,7.0,48,0.00,,,0.00,,2013-07-11 21:35:00,
2013-07-11 17:44:00,79.0,56.0,30.06,NE,34,3.0,6.0,46,0.00,,,0.00,,2013-07-11 21:44:00,
2013-07-11 17:55:00,79.0,56.0,30.06,NE,34,3.0,6.0,46,0.00,,,0.00,,2013-07-11 21:55:00,
2013-07-11 18:05:00,78.0,56.0,30.06,NE,55,3.0,8.0,46,0.00,,,0.00,,2013-07-11 22:05:00,
2013-07-11 18:25:00,78.0,56.0,30.06,NE,46,2.0,8.0,47,0.00,,,0.00,,2013-07-11 22:25:00,
2013-07-11 18:46:00,79.0,56.0,30.05,East,86,3.0,7.0,46,0.00,,,0.00,,2013-07-11 22:46:00,
2013-07-11 18:54:00,79.0,56.0,30.05,East,86,3.0,7.0,46,0.00,,,0.00,,2013-07-11 22:54:00,
2013-07-11 19:06:00,79.0,59.0,30.05,NE,36,1.0,8.0,51,0.00,,,0.00,,2013-07-11 23:06:00,
2013-07-11 19:13:00,79.0,58.0,30.05,NNE,22,2.0,4.0,49,0.00,,,0.00,,2013-07-11 23:13:00,
2013-07-11 19:25:00,79.0,58.0,30.05,NNE,22,2.0,4.0,49,0.00,,,0.00,,2013-07-11 23:25:00,
2013-07-11 19:35:00,79.0,57.0,30.05,ENE,64,3.0,6.0,47,0.00,,,0.00,,2013-07-11 23:35:00,
2013-07-11 19:46:00,78.0,59.0,30.05,NNE,33,0.0,5.0,52,0.00,,,0.00,,2013-07-11 23:46:00,
2013-07-11 19:54:00,78.0,59.0,30.05,NNE,33,0.0,5.0,52,0.00,,,0.00,,2013-07-11 23:54:00,
2013-07-11 20:05:00,78.0,58.0,30.05,NE,40,2.0,5.0,50,0.00,,,0.00,,2013-07-12 00:05:00,
2013-07-11 20:13:00,77.0,57.0,30.05,NE,37,2.0,4.0,50,0.00,,,0.00,,2013-07-12 00:13:00,
2013-07-11 20:24:00,77.0,57.0,30.05,NE,37,2.0,4.0,50,0.00,,,0.00,,2013-07-12 00:24:00,
2013-07-11 20:36:00,76.0,58.0,30.05,NNE,27,1.0,5.0,53,0.00,,,0.00,,2013-07-12 00:36:00,
2013-07-11 20:55:00,75.0,58.0,30.05,NE,46,0.0,3.0,55,0.00,,,0.00,,2013-07-12 00:55:00,
2013-07-11 21:13:00,73.0,58.0,30.04,NE,39,0.0,1.0,60,0.00,,,0.00,,2013-07-12 01:13:00,
2013-07-11 21:26:00,73.0,58.0,30.04,NE,39,0.0,1.0,60,0.00,,,0.00,,2013-07-12 01:26:00,
2013-07-11 21:36:00,71.0,57.0,30.04,NE,39,0.0,1.0,62,0.00,,,0.00,,2013-07-12 01:36:00,
2013-07-11 21:46:00,69.0,57.0,30.04,NE,48,0.0,1.0,66,0.00,,,0.00,,2013-07-12 01:46:00,
2013-07-11 21:55:00,69.0,57.0,30.04,NE,48,0.0,1.0,66,0.00,,,0.00,,2013-07-12 01:55:00,
2013-07-11 22:06:00,67.0,56.0,30.04,NE,48,0.0,0.0,68,0.00,,,0.00,,2013-07-12 02:06:00,
2013-07-11 22:15:00,66.0,56.0,30.04,NE,48,0.0,0.0,71,0.00,,,0.00,,2013-07-12 02:15:00,
2013-07-11 22:25:00,66.0,56.0,30.04,NE,48,0.0,0.0,71,0.00,,,0.00,,2013-07-12 02:25:00,
2013-07-11 22:35:00,65.0,57.0,30.05,NE,48,0.0,0.0,75,0.00,,,0.00,,2013-07-12 02:35:00,
2013-07-11 22:44:00,64.0,57.0,30.06,NE,48,0.0,0.0,78,0.00,,,0.00,,2013-07-12 02:44:00,
2013-07-11 23:03:00,63.0,57.0,30.06,NE,48,0.0,0.0,80,0.00,,,0.00,,2013-07-12 03:03:00,
2013-07-11 23:14:00,63.0,57.0,30.06,NE,48,0.0,0.0,81,0.00,,,0.00,,2013-07-12 03:14:00,
2013-07-11 23:24:00,63.0,57.0,30.06,NE,48,0.0,0.0,81,0.00,,,0.00,,2013-07-12 03:24:00,
2013-07-11 23:37:00,62.0,56.0,30.06,NE,48,0.0,0.0,82,0.00,,,0.00,,2013-07-12 03:37:00,
2013-07-11 23:44:00,62.0,56.0,30.06,NE,48,0.0,0.0,81,0.00,,,0.00,,2013-07-12 03:44:00,
2013-07-11 23:54:00,62.0,56.0,30.06,NE,48,0.0,0.0,81,0.00,,,0.00,,2013-07-12 03:54:00,